Time,TemperatureF,DewpointF,PressureIn,WindDirection,WindDirectionDegrees,WindSpeedMPH,WindSpeedGustMPH,Humidity,HourlyPrecipIn,Conditions,Clouds,dailyrainin,SoftwareType,DateUTC
2013-01-14 00:04:00,40.7,15.2,30.18,WNW,283,2.0,2.0,35,0.00,,,0.00,LWC V2.00 B2112,2013-01-14 08:04:00,
2013-01-14 00:09:00,40.6,15.8,30.19,NE,49,0.0,3.0,36,0.00,,,0.00,LWC V2.00 B2112,2013-01-14 08:09:00,
2013-01-14 00:14:00,40.3,16.1,30.19,East,86,2.0,4.0,37,0.00,,,0.00,LWC V2.00 B2112,2013-01-14 08:14:00,
2013-01-14 00:19:00,40.1,15.3,30.19,NE,36,6.0,7.0,36,0.00,,,0.00,LWC V2.00 B2112,2013-01-14 08:19:00,
2013-01-14 00:24:00,40.1,15.9,30.19,ENE,65,0.0,2.0,37,0.00,,,0.00,LWC V2.00 B2112,2013-01-14 08:24:00,
2013-01-14 00:29:00,39.9,15.8,30.20,East,94,0.0,5.0,37,0.00,,,0.00,LWC V2.00 B2112,2013-01-14 08:29:00,
2013-01-14 00:34:00,39.8,15.0,30.20,ESE,102,4.0,4.0,36,0.00,,,0.00,LWC V2.00 B2112,2013-01-14 08:34:00,
2013-01-14 00:39:00,39.6,14.9,30.20,East,101,4.0,4.0,36,0.00,,,0.00,LWC V2.00 B2112,2013-01-14 08:39:00,
2013-01-14 00:44:00,39.5,14.8,30.21,East,101,2.0,2.0,36,0.00,,,0.00,LWC V2.00 B2112,2013-01-14 08:44:00,
2013-01-14 00:49:00,39.4,14.7,30.21,ENE,65,2.0,2.0,36,0.00,,,0.00,LWC V2.00 B2112,2013-01-14 08:49:00,
2013-01-14 00:54:00,39.3,14.6,30.21,NW,323,1.0,1.0,36,0.00,,,0.00,LWC V2.00 B2112,2013-01-14 08:54:00,
2013-01-14 00:59:00,39.3,14.6,30.21,East,88,1.0,3.0,36,0.00,,,0.00,LWC V2.00 B2112,2013-01-14 08:59:00,
2013-01-14 01:04:00,39.3,14.6,30.21,NW,322,0.0,1.0,36,0.00,,,0.00,LWC V2.00 B2112,2013-01-14 09:04:00,
2013-01-14 01:09:00,39.2,15.8,30.22,NNE,28,2.0,3.0,38,0.00,,,0.00,LWC V2.00 B2112,2013-01-14 09:09:00,
2013-01-14 01:14:00,39.1,14.4,30.22,NNE,30,0.0,0.0,36,0.00,,,0.00,LWC V2.00 B2112,2013-01-14 09:14:00,
2013-01-14 01:19:00,39.2,13.9,30.22,NNW,340,5.0,5.0,35,0.00,,,0.00,LWC V2.00 B2112,2013-01-14 09:19:00,
2013-01-14 01:24:00,39.3,14.0,30.23,NNW,338,0.0,2.0,35,0.00,,,0.00,LWC V2.00 B2112,2013-01-14 09:24:00,
2013-01-14 01:29:00,39.3,13.3,30.23,WSW,238,1.0,6.0,34,0.00,,,0.00,LWC V2.00 B2112,2013-01-14 09:29:00,
2013-01-14 01:34:00,39.3,13.3,30.23,NNW,338,0.0,5.0,34,0.00,,,0.00,LWC V2.00 B2112,2013-01-14 09:34:00,
2013-01-14 01:39:00,39.5,12.8,30.23,WNW,288,0.0,4.0,33,0.00,,,0.00,LWC V2.00 B2112,2013-01-14 09:39:00,
2013-01-14 01:44:00,39.6,12.9,30.23,ENE,61,1.0,2.0,33,0.00,,,0.00,LWC V2.00 B2112,2013-01-14 09:44:00,
2013-01-14 01:49:00,39.6,13.6,30.24,NW,304,2.0,4.0,34,0.00,,,0.00,LWC V2.00 B2112,2013-01-14 09:49:00,
2013-01-14 01:54:00,39.6,13.6,30.23,West,261,0.0,3.0,34,0.00,,,0.00,LWC V2.00 B2112,2013-01-14 09:54:00,
2013-01-14 01:59:00,39.5,13.5,30.23,West,276,1.0,3.0,34,0.00,,,0.00,LWC V2.00 B2112,2013-01-14 09:59:00,
2013-01-14 02:04:00,39.4,13.4,30.24,NW,304,3.0,7.0,34,0.00,,,0.00,LWC V2.00 B2112,2013-01-14 10:04:00,
2013-01-14 02:09:00,39.3,13.3,30.24,WNW,294,1.0,4.0,34,0.00,,,0.00,LWC V2.00 B2112,2013-01-14 10:09:00,
2013-01-14 02:14:00,39.2,13.9,30.24,WNW,298,3.0,7.0,35,0.00,,,0.00,LWC V2.00 B2112,2013-01-14 10:14:00,
2013-01-14 02:19:00,39.2,13.9,30.24,North,355,6.0,7.0,35,0.00,,,0.00,LWC V2.00 B2112,2013-01-14 10:19:00,
2013-01-14 02:24:00,39.3,13.3,30.24,NNW,331,3.0,6.0,34,0.00,,,0.00,LWC V2.00 B2112,2013-01-14 10:24:00,
2013-01-14 02:29:00,39.3,13.3,30.24,NNW,335,0.0,5.0,34,0.00,,,0.00,LWC V2.00 B2112,2013-01-14 10:29:00,
2013-01-14 02:34:00,39.4,14.1,30.24,NNW,340,0.0,3.0,35,0.00,,,0.00,LWC V2.00 B2112,2013-01-14 10:34:00,
2013-01-14 02:39:00,39.3,14.0,30.24,NNE,32,0.0,0.0,35,0.00,,,0.00,LWC V2.00 B2112,2013-01-14 10:39:00,
2013-01-14 02:44:00,39.2,13.9,30.24,West,279,0.0,4.0,35,0.00,,,0.00,LWC V2.00 B2112,2013-01-14 10:44:00,
2013-01-14 02:49:00,39.1,13.8,30.24,SSW,195,0.0,4.0,35,0.00,,,0.00,LWC V2.00 B2112,2013-01-14 10:49:00,
2013-01-14 02:54:00,39.0,13.7,30.24,ENE,63,1.0,2.0,35,0.00,,,0.00,LWC V2.00 B2112,2013-01-14 10:54:00,
2013-01-14 02:59:00,39.0,13.7,30.25,ENE,63,0.0,0.0,35,0.00,,,0.00,LWC V2.00 B2112,2013-01-14 10:59:00,
2013-01-14 03:04:00,38.9,14.2,30.25,ENE,75,1.0,2.0,36,0.00,,,0.00,LWC V2.00 B2112,2013-01-14 11:04:00,
2013-01-14 03:09:00,38.8,14.2,30.25,East,82,0.0,0.0,36,0.00,,,0.00,LWC V2.00 B2112,2013-01-14 11:09:00,
2013-01-14 03:14:00,38.6,14.6,30.25,East,91,2.0,2.0,37,0.00,,,0.00,LWC V2.00 B2112,2013-01-14 11:14:00,
2013-01-14 03:19:00,38.3,14.3,30.25,East,84,0.0,3.0,37,0.00,,,0.00,LWC V2.00 B2112,2013-01-14 11:19:00,
2013-01-14 03:24:00,38.2,14.2,30.25,East,95,4.0,6.0,37,0.00,,,0.00,LWC V2.00 B2112,2013-01-14 11:24:00,
2013-01-14 03:29:00,38.1,14.2,30.25,East,94,0.0,0.0,37,0.00,,,0.00,LWC V2.00 B2112,2013-01-14 11:29:00,
2013-01-14 03:34:00,37.9,14.6,30.26,East,94,0.0,2.0,38,0.00,,,0.00,LWC V2.00 B2112,2013-01-14 11:34:00,
2013-01-14 03:39:00,37.9,14.0,30.25,NW,309,2.0,5.0,37,0.00,,,0.00,LWC V2.00 B2112,2013-01-14 11:39:00,
2013-01-14 03:44:00,38.1,14.2,30.26,NW,309,3.0,3.0,37,0.00,,,0.00,LWC V2.00 B2112,2013-01-14 11:44:00,
2013-01-14 03:49:00,38.3,13.7,30.25,NNE,30,0.0,4.0,36,0.00,,,0.00,LWC V2.00 B2112,2013-01-14 11:49:00,
2013-01-14 03:54:00,38.3,13.7,30.26,NNE,26,1.0,3.0,36,0.00,,,0.00,LWC V2.00 B2112,2013-01-14 11:54:00,
2013-01-14 03:59:00,38.4,13.2,30.25,NNE,29,0.0,3.0,35,0.00,,,0.00,LWC V2.00 B2112,2013-01-14 11:59:00,
2013-01-14 04:04:00,38.5,13.3,30.25,NW,318,0.0,3.0,35,0.00,,,0.00,LWC V2.00 B2112,2013-01-14 12:04:00,
2013-01-14 04:09:00,38.6,14.0,30.26,NNW,340,3.0,4.0,36,0.00,,,0.00,LWC V2.00 B2112,2013-01-14 12:09:00,
2013-01-14 04:14:00,38.6,13.3,30.25,WNW,300,4.0,5.0,35,0.00,,,0.00,LWC V2.00 B2112,2013-01-14 12:14:00,
2013-01-14 04:19:00,38.7,13.4,30.25,NE,42,2.0,5.0,35,0.00,,,0.00,LWC V2.00 B2112,2013-01-14 12:19:00,
2013-01-14 04:24:00,38.7,13.4,30.25,NNW,338,1.0,3.0,35,0.00,,,0.00,LWC V2.00 B2112,2013-01-14 12:24:00,
2013-01-14 04:29:00,38.8,12.9,30.25,NW,315,4.0,6.0,34,0.00,,,0.00,LWC V2.00 B2112,2013-01-14 12:29:00,
2013-01-14 04:34:00,38.9,13.0,30.26,NNW,336,0.0,5.0,34,0.00,,,0.00,LWC V2.00 B2112,2013-01-14 12:34:00,
2013-01-14 04:39:00,38.9,13.6,30.26,WNW,298,0.0,5.0,35,0.00,,,0.00,LWC V2.00 B2112,2013-01-14 12:39:00,
2013-01-14 04:44:00,38.8,13.5,30.26,WNW,299,2.0,5.0,35,0.00,,,0.00,LWC V2.00 B2112,2013-01-14 12:44:00,
2013-01-14 04:49:00,38.6,13.3,30.26,NW,307,0.0,10.0,35,0.00,,,0.00,LWC V2.00 B2112,2013-01-14 12:49:00,
2013-01-14 04:54:00,38.6,13.3,30.26,North,351,7.0,9.0,35,0.00,,,0.00,LWC V2.00 B2112,2013-01-14 12:54:00,
2013-01-14 04:59:00,38.5,13.9,30.26,NW,316,2.0,9.0,36,0.00,,,0.00,LWC V2.00 B2112,2013-01-14 12:59:00,
2013-01-14 05:04:00,38.4,13.8,30.26,NW,320,3.0,13.0,36,0.00,,,0.00,LWC V2.00 B2112,2013-01-14 13:04:00,
2013-01-14 05:09:00,38.3,14.3,30.26,NW,311,7.0,15.0,37,0.00,,,0.00,LWC V2.00 B2112,2013-01-14 13:09:00,
2013-01-14 05:14:00,38.3,14.3,30.25,NW,323,4.0,8.0,37,0.00,,,0.00,LWC V2.00 B2112,2013-01-14 13:14:00,
2013-01-14 05:19:00,38.3,14.3,30.25,NNE,23,11.0,19.0,37,0.00,,,0.00,LWC V2.00 B2112,2013-01-14 13:19:00,
2013-01-14 05:24:00,38.4,13.8,30.25,NE,46,5.0,9.0,36,0.00,,,0.00,LWC V2.00 B2112,2013-01-14 13:24:00,
2013-01-14 05:29:00,38.5,14.5,30.25,North,11,5.0,13.0,37,0.00,,,0.00,LWC V2.00 B2112,2013-01-14 13:29:00,
2013-01-14 05:34:00,38.5,14.5,30.25,SE,144,9.0,19.0,37,0.00,,,0.00,LWC V2.00 B2112,2013-01-14 13:34:00,
2013-01-14 05:39:00,38.5,14.5,30.25,NE,36,16.0,20.0,37,0.00,,,0.00,LWC V2.00 B2112,2013-01-14 13:39:00,
2013-01-14 05:44:00,38.6,14.6,30.25,SSE,158,5.0,10.0,37,0.00,,,0.00,LWC V2.00 B2112,2013-01-14 13:44:00,
2013-01-14 05:49:00,38.6,14.6,30.26,West,261,2.0,11.0,37,0.00,,,0.00,LWC V2.00 B2112,2013-01-14 13:49:00,
2013-01-14 05:54:00,38.4,14.4,30.26,WSW,258,0.0,5.0,37,0.00,,,0.00,LWC V2.00 B2112,2013-01-14 13:54:00,
2013-01-14 05:59:00,38.2,14.9,30.27,North,355,3.0,11.0,38,0.00,,,0.00,LWC V2.00 B2112,2013-01-14 13:59:00,
2013-01-14 06:04:00,38.0,14.1,30.27,SW,214,0.0,5.0,37,0.00,,,0.00,LWC V2.00 B2112,2013-01-14 14:04:00,
2013-01-14 06:09:00,38.1,14.2,30.27,ESE,113,1.0,3.0,37,0.00,,,0.00,LWC V2.00 B2112,2013-01-14 14:09:00,
2013-01-14 06:14:00,38.2,13.6,30.27,NW,306,5.0,18.0,36,0.00,,,0.00,LWC V2.00 B2112,2013-01-14 14:14:00,
2013-01-14 06:19:00,38.5,13.9,30.28,ENE,63,3.0,3.0,36,0.00,,,0.00,LWC V2.00 B2112,2013-01-14 14:19:00,
2013-01-14 06:24:00,38.5,13.9,30.28,NE,46,0.0,2.0,36,0.00,,,0.00,LWC V2.00 B2112,2013-01-14 14:24:00,
2013-01-14 06:29:00,38.6,14.0,30.29,ESE,114,0.0,4.0,36,0.00,,,0.00,LWC V2.00 B2112,2013-01-14 14:29:00,
2013-01-14 06:34:00,38.7,13.4,30.29,ENE,71,1.0,8.0,35,0.00,,,0.00,LWC V2.00 B2112,2013-01-14 14:34:00,
2013-01-14 06:39:00,38.7,13.4,30.30,East,92,1.0,8.0,35,0.00,,,0.00,LWC V2.00 B2112,2013-01-14 14:39:00,
2013-01-14 06:44:00,38.5,13.9,30.30,East,98,1.0,4.0,36,0.00,,,0.00,LWC V2.00 B2112,2013-01-14 14:44:00,
2013-01-14 06:49:00,38.4,13.2,30.30,East,96,0.0,2.0,35,0.00,,,0.00,LWC V2.00 B2112,2013-01-14 14:49:00,
2013-01-14 06:54:00,38.3,14.3,30.30,ESE,109,3.0,5.0,37,0.00,,,0.00,LWC V2.00 B2112,2013-01-14 14:54:00,
2013-01-14 06:59:00,38.2,13.6,30.30,East,92,0.0,7.0,36,0.00,,,0.00,LWC V2.00 B2112,2013-01-14 14:59:00,
2013-01-14 07:04:00,38.0,14.1,30.30,SE,145,4.0,9.0,37,0.00,,,0.00,LWC V2.00 B2112,2013-01-14 15:04:00,
2013-01-14 07:09:00,37.9,14.0,30.30,ESE,115,0.0,7.0,37,0.00,,,0.00,LWC V2.00 B2112,2013-01-14 15:09:00,
2013-01-14 07:14:00,37.9,14.0,30.31,NE,51,0.0,2.0,37,0.00,,,0.00,LWC V2.00 B2112,2013-01-14 15:14:00,
2013-01-14 07:19:00,37.8,13.9,30.31,ESE,110,3.0,4.0,37,0.00,,,0.00,LWC V2.00 B2112,2013-01-14 15:19:00,
2013-01-14 07:24:00,37.8,13.3,30.31,ESE,114,0.0,10.0,36,0.00,,,0.00,LWC V2.00 B2112,2013-01-14 15:24:00,
2013-01-14 07:29:00,37.9,13.4,30.31,ESE,110,1.0,4.0,36,0.00,,,0.00,LWC V2.00 B2112,2013-01-14 15:29:00,
2013-01-14 07:34:00,37.9,13.4,30.32,ESE,109,0.0,2.0,36,0.00,,,0.00,LWC V2.00 B2112,2013-01-14 15:34:00,
2013-01-14 07:39:00,37.9,13.4,30.32,SE,126,0.0,0.0,36,0.00,,,0.00,LWC V2.00 B2112,2013-01-14 15:39:00,
2013-01-14 07:44:00,37.9,14.0,30.32,SE,124,2.0,3.0,37,0.00,,,0.00,LWC V2.00 B2112,2013-01-14 15:44:00,
2013-01-14 07:49:00,37.8,13.3,30.32,SW,236,7.0,7.0,36,0.00,,,0.00,LWC V2.00 B2112,2013-01-14 15:49:00,
2013-01-14 07:54:00,37.7,13.8,30.31,NNW,338,6.0,12.0,37,0.00,,,0.00,LWC V2.00 B2112,2013-01-14 15:54:00,
2013-01-14 07:59:00,37.9,13.4,30.32,West,262,3.0,4.0,36,0.00,,,0.00,LWC V2.00 B2112,2013-01-14 15:59:00,
2013-01-14 08:04:00,38.0,14.1,30.32,NW,311,14.0,14.0,37,0.00,,,0.00,LWC V2.00 B2112,2013-01-14 16:04:00,
2013-01-14 08:09:00,38.1,14.2,30.32,NNE,13,2.0,12.0,37,0.00,,,0.00,LWC V2.00 B2112,2013-01-14 16:09:00,
2013-01-14 08:14:00,38.1,14.2,30.33,WNW,300,4.0,11.0,37,0.00,,,0.00,LWC V2.00 B2112,2013-01-14 16:14:00,
2013-01-14 08:19:00,38.1,14.2,30.33,WNW,284,1.0,3.0,37,0.00,,,0.00,LWC V2.00 B2112,2013-01-14 16:19:00,
2013-01-14 08:24:00,38.2,13.6,30.33,WNW,288,0.0,8.0,36,0.00,,,0.00,LWC V2.00 B2112,2013-01-14 16:24:00,
2013-01-14 08:29:00,38.2,14.2,30.34,WNW,287,3.0,9.0,37,0.00,,,0.00,LWC V2.00 B2112,2013-01-14 16:29:00,
2013-01-14 08:34:00,38.2,14.2,30.34,NNW,328,3.0,7.0,37,0.00,,,0.00,LWC V2.00 B2112,2013-01-14 16:34:00,
2013-01-14 08:39:00,38.3,14.3,30.34,West,273,6.0,9.0,37,0.00,,,0.00,LWC V2.00 B2112,2013-01-14 16:39:00,
2013-01-14 08:44:00,38.6,14.0,30.34,WNW,286,5.0,13.0,36,0.00,,,0.00,LWC V2.00 B2112,2013-01-14 16:44:00,
2013-01-14 08:49:00,38.8,13.5,30.34,West,271,7.0,11.0,35,0.00,,,0.00,LWC V2.00 B2112,2013-01-14 16:49:00,
2013-01-14 08:54:00,39.1,14.4,30.34,West,261,10.0,11.0,36,0.00,,,0.00,LWC V2.00 B2112,2013-01-14 16:54:00,
2013-01-14 08:59:00,39.5,12.8,30.34,West,279,9.0,19.0,33,0.00,,,0.00,LWC V2.00 B2112,2013-01-14 16:59:00,
2013-01-14 09:04:00,40.8,12.5,30.34,North,355,11.0,15.0,31,0.00,,,0.00,LWC V2.00 B2112,2013-01-14 17:04:00,
2013-01-14 09:09:00,41.6,12.5,30.35,SSW,210,10.0,15.0,30,0.00,,,0.00,LWC V2.00 B2112,2013-01-14 17:09:00,
2013-01-14 09:14:00,41.7,14.0,30.35,NW,314,10.0,11.0,32,0.00,,,0.00,LWC V2.00 B2112,2013-01-14 17:14:00,
2013-01-14 09:19:00,41.5,14.6,30.34,NW,314,6.0,12.0,33,0.00,,,0.00,LWC V2.00 B2112,2013-01-14 17:19:00,
2013-01-14 09:24:00,41.5,13.9,30.35,West,272,4.0,6.0,32,0.00,,,0.00,LWC V2.00 B2112,2013-01-14 17:24:00,
2013-01-14 09:29:00,41.8,13.4,30.35,NE,40,12.0,13.0,31,0.00,,,0.00,LWC V2.00 B2112,2013-01-14 17:29:00,
2013-01-14 09:34:00,42.0,15.0,30.35,East,87,3.0,4.0,33,0.00,,,0.00,LWC V2.00 B2112,2013-01-14 17:34:00,
2013-01-14 09:39:00,42.1,15.1,30.35,NNW,339,3.0,6.0,33,0.00,,,0.00,LWC V2.00 B2112,2013-01-14 17:39:00,
2013-01-14 09:44:00,42.2,15.2,30.35,East,84,4.0,6.0,33,0.00,,,0.00,LWC V2.00 B2112,2013-01-14 17:44:00,
2013-01-14 09:49:00,42.3,13.8,30.36,ESE,104,0.0,8.0,31,0.00,,,0.00,LWC V2.00 B2112,2013-01-14 17:49:00,
2013-01-14 09:54:00,42.3,14.6,30.35,North,349,3.0,4.0,32,0.00,,,0.00,LWC V2.00 B2112,2013-01-14 17:54:00,
2013-01-14 09:59:00,42.4,16.0,30.35,NW,312,4.0,4.0,34,0.00,,,0.00,LWC V2.00 B2112,2013-01-14 17:59:00,
2013-01-14 10:04:00,42.6,16.2,30.35,WSW,249,2.0,4.0,34,0.00,,,0.00,LWC V2.00 B2112,2013-01-14 18:04:00,
2013-01-14 10:09:00,42.7,15.6,30.35,West,273,3.0,7.0,33,0.00,,,0.00,LWC V2.00 B2112,2013-01-14 18:09:00,
2013-01-14 10:14:00,42.8,13.5,30.35,South,178,1.0,5.0,30,0.00,,,0.00,LWC V2.00 B2112,2013-01-14 18:14:00,
2013-01-14 10:19:00,43.1,15.3,30.35,NW,317,4.0,8.0,32,0.00,,,0.00,LWC V2.00 B2112,2013-01-14 18:19:00,
2013-01-14 10:24:00,43.3,16.2,30.35,NW,311,7.0,7.0,33,0.00,,,0.00,LWC V2.00 B2112,2013-01-14 18:24:00,
2013-01-14 10:29:00,43.7,17.2,30.35,NW,318,1.0,3.0,34,0.00,,,0.00,LWC V2.00 B2112,2013-01-14 18:29:00,
2013-01-14 10:34:00,44.4,17.1,30.35,South,173,3.0,6.0,33,0.00,,,0.00,LWC V2.00 B2112,2013-01-14 18:34:00,
2013-01-14 10:39:00,45.0,17.6,30.35,NW,319,0.0,6.0,33,0.00,,,0.00,LWC V2.00 B2112,2013-01-14 18:39:00,
2013-01-14 10:44:00,45.4,18.0,30.35,ENE,76,0.0,3.0,33,0.00,,,0.00,LWC V2.00 B2112,2013-01-14 18:44:00,
2013-01-14 10:49:00,45.6,16.7,30.35,ENE,76,4.0,12.0,31,0.00,,,0.00,LWC V2.00 B2112,2013-01-14 18:49:00,
2013-01-14 10:54:00,45.5,16.6,30.35,East,95,1.0,6.0,31,0.00,,,0.00,LWC V2.00 B2112,2013-01-14 18:54:00,
2013-01-14 10:59:00,45.5,16.6,30.35,North,355,2.0,9.0,31,0.00,,,0.00,LWC V2.00 B2112,2013-01-14 18:59:00,
2013-01-14 11:04:00,45.4,17.3,30.35,NNW,338,5.0,7.0,32,0.00,,,0.00,LWC V2.00 B2112,2013-01-14 19:04:00,
2013-01-14 11:09:00,45.3,17.9,30.35,NNW,340,2.0,6.0,33,0.00,,,0.00,LWC V2.00 B2112,2013-01-14 19:09:00,
2013-01-14 11:14:00,45.4,19.4,30.35,NW,309,7.0,10.0,35,0.00,,,0.00,LWC V2.00 B2112,2013-01-14 19:14:00,
2013-01-14 11:19:00,45.3,17.9,30.34,West,273,4.0,7.0,33,0.00,,,0.00,LWC V2.00 B2112,2013-01-14 19:19:00,
2013-01-14 11:24:00,45.2,19.2,30.34,WNW,293,6.0,12.0,35,0.00,,,0.00,LWC V2.00 B2112,2013-01-14 19:24:00,
2013-01-14 11:29:00,45.1,19.1,30.33,NW,310,9.0,13.0,35,0.00,,,0.00,LWC V2.00 B2112,2013-01-14 19:29:00,
2013-01-14 11:34:00,45.3,19.9,30.33,NW,304,10.0,11.0,36,0.00,,,0.00,LWC V2.00 B2112,2013-01-14 19:34:00,
2013-01-14 11:39:00,45.6,19.5,30.33,WNW,300,8.0,11.0,35,0.00,,,0.00,LWC V2.00 B2112,2013-01-14 19:39:00,
2013-01-14 11:44:00,45.9,19.1,30.33,NNW,343,2.0,6.0,34,0.00,,,0.00,LWC V2.00 B2112,2013-01-14 19:44:00,
2013-01-14 11:49:00,46.2,21.4,30.32,NW,321,11.0,11.0,37,0.00,,,0.00,LWC V2.00 B2112,2013-01-14 19:49:00,
2013-01-14 11:54:00,46.6,19.8,30.32,West,281,4.0,11.0,34,0.00,,,0.00,LWC V2.00 B2112,2013-01-14 19:54:00,
2013-01-14 11:59:00,46.8,21.3,30.31,WNW,298,12.0,12.0,36,0.00,,,0.00,LWC V2.00 B2112,2013-01-14 19:59:00,
2013-01-14 12:04:00,46.9,20.7,30.31,NW,304,7.0,10.0,35,0.00,,,0.00,LWC V2.00 B2112,2013-01-14 20:04:00,
2013-01-14 12:09:00,47.2,20.3,30.31,NE,55,1.0,5.0,34,0.00,,,0.00,LWC V2.00 B2112,2013-01-14 20:09:00,
2013-01-14 12:14:00,47.6,20.6,30.31,NW,309,4.0,11.0,34,0.00,,,0.00,LWC V2.00 B2112,2013-01-14 20:14:00,
2013-01-14 12:19:00,48.1,19.7,30.31,NNW,333,2.0,5.0,32,0.00,,,0.00,LWC V2.00 B2112,2013-01-14 20:19:00,
2013-01-14 12:24:00,48.6,20.1,30.30,NW,307,13.0,13.0,32,0.00,,,0.00,LWC V2.00 B2112,2013-01-14 20:24:00,
2013-01-14 12:29:00,48.4,21.3,30.30,WNW,302,9.0,14.0,34,0.00,,,0.00,LWC V2.00 B2112,2013-01-14 20:29:00,
2013-01-14 12:34:00,47.9,21.6,30.30,WNW,294,6.0,12.0,35,0.00,,,0.00,LWC V2.00 B2112,2013-01-14 20:34:00,
2013-01-14 12:39:00,47.9,20.9,30.30,WNW,303,10.0,12.0,34,0.00,,,0.00,LWC V2.00 B2112,2013-01-14 20:39:00,
2013-01-14 12:44:00,47.8,20.8,30.30,NW,313,7.0,13.0,34,0.00,,,0.00,LWC V2.00 B2112,2013-01-14 20:44:00,
2013-01-14 12:54:00,47.7,21.4,30.30,WNW,288,11.0,16.0,35,0.00,,,0.00,LWC V2.00 B2112,2013-01-14 20:54:00,
2013-01-14 12:59:00,47.6,20.6,30.30,West,277,9.0,14.0,34,0.00,,,0.00,LWC V2.00 B2112,2013-01-14 20:59:00,
2013-01-14 13:04:00,47.5,21.2,30.30,WNW,303,14.0,17.0,35,0.00,,,0.00,LWC V2.00 B2112,2013-01-14 21:04:00,
2013-01-14 13:09:00,47.5,21.2,30.30,WNW,291,10.0,16.0,35,0.00,,,0.00,LWC V2.00 B2112,2013-01-14 21:09:00,
2013-01-14 13:14:00,47.5,21.2,30.30,WNW,295,15.0,15.0,35,0.00,,,0.00,LWC V2.00 B2112,2013-01-14 21:14:00,
2013-01-14 13:19:00,47.7,21.4,30.30,WNW,290,12.0,15.0,35,0.00,,,0.00,LWC V2.00 B2112,2013-01-14 21:19:00,
2013-01-14 13:24:00,48.1,22.4,30.31,West,275,11.0,13.0,36,0.00,,,0.00,LWC V2.00 B2112,2013-01-14 21:24:00,
2013-01-14 13:29:00,48.2,21.2,30.30,WNW,302,12.0,15.0,34,0.00,,,0.00,LWC V2.00 B2112,2013-01-14 21:29:00,
2013-01-14 13:34:00,48.4,21.3,30.30,WNW,288,9.0,12.0,34,0.00,,,0.00,LWC V2.00 B2112,2013-01-14 21:34:00,
2013-01-14 13:39:00,48.4,22.0,30.30,WNW,302,11.0,16.0,35,0.00,,,0.00,LWC V2.00 B2112,2013-01-14 21:39:00,
2013-01-14 13:44:00,48.9,23.1,30.31,NW,321,11.0,17.0,36,0.00,,,0.00,LWC V2.00 B2112,2013-01-14 21:44:00,
2013-01-14 13:49:00,49.2,22.0,30.31,NNW,330,4.0,13.0,34,0.00,,,0.00,LWC V2.00 B2112,2013-01-14 21:49:00,
2013-01-14 13:54:00,49.4,22.9,30.31,NW,313,4.0,8.0,35,0.00,,,0.00,LWC V2.00 B2112,2013-01-14 21:54:00,
2013-01-14 13:59:00,49.6,21.7,30.32,NNE,13,9.0,14.0,33,0.00,,,0.00,LWC V2.00 B2112,2013-01-14 21:59:00,
2013-01-14 14:04:00,49.7,21.8,30.32,West,275,5.0,5.0,33,0.00,,,0.00,LWC V2.00 B2112,2013-01-14 22:04:00,
2013-01-14 14:09:00,50.2,22.2,30.32,WNW,300,4.0,14.0,33,0.00,,,0.00,LWC V2.00 B2112,2013-01-14 22:09:00,
2013-01-14 14:14:00,50.4,22.4,30.32,NW,309,7.0,13.0,33,0.00,,,0.00,LWC V2.00 B2112,2013-01-14 22:14:00,
2013-01-14 14:19:00,50.2,21.5,30.31,NW,326,9.0,13.0,32,0.00,,,0.00,LWC V2.00 B2112,2013-01-14 22:19:00,
2013-01-14 14:24:00,50.2,21.5,30.31,NW,306,10.0,15.0,32,0.00,,,0.00,LWC V2.00 B2112,2013-01-14 22:24:00,
2013-01-14 14:29:00,50.2,22.9,30.31,NNW,340,4.0,11.0,34,0.00,,,0.00,LWC V2.00 B2112,2013-01-14 22:29:00,
2013-01-14 14:34:00,50.3,22.3,30.32,NW,314,5.0,13.0,33,0.00,,,0.00,LWC V2.00 B2112,2013-01-14 22:34:00,
2013-01-14 14:39:00,50.1,20.7,30.32,NNW,337,5.0,8.0,31,0.00,,,0.00,LWC V2.00 B2112,2013-01-14 22:39:00,
2013-01-14 14:49:00,50.3,23.0,30.32,NW,304,10.0,13.0,34,0.00,,,0.00,LWC V2.00 B2112,2013-01-14 22:49:00,
2013-01-14 14:54:00,50.4,23.1,30.31,WNW,301,13.0,13.0,34,0.00,,,0.00,LWC V2.00 B2112,2013-01-14 22:54:00,
2013-01-14 14:59:00,50.4,23.1,30.31,NW,309,7.0,13.0,34,0.00,,,0.00,LWC V2.00 B2112,2013-01-14 22:59:00,
2013-01-14 15:04:00,50.2,21.5,30.31,NW,318,5.0,16.0,32,0.00,,,0.00,LWC V2.00 B2112,2013-01-14 23:04:00,
2013-01-14 15:09:00,50.3,21.6,30.31,North,355,3.0,10.0,32,0.00,,,0.00,LWC V2.00 B2112,2013-01-14 23:09:00,
2013-01-14 15:14:00,50.6,19.5,30.31,NNW,340,7.0,13.0,29,0.00,,,0.00,LWC V2.00 B2112,2013-01-14 23:14:00,
2013-01-14 15:19:00,50.5,20.2,30.31,WNW,301,5.0,13.0,30,0.00,,,0.00,LWC V2.00 B2112,2013-01-14 23:19:00,
2013-01-14 15:24:00,50.6,18.7,30.31,North,5,5.0,10.0,28,0.00,,,0.00,LWC V2.00 B2112,2013-01-14 23:24:00,
2013-01-14 15:29:00,50.8,19.7,30.31,SSE,162,3.0,7.0,29,0.00,,,0.00,LWC V2.00 B2112,2013-01-14 23:29:00,
2013-01-14 15:34:00,51.1,19.1,30.31,SSE,165,6.0,15.0,28,0.00,,,0.00,LWC V2.00 B2112,2013-01-14 23:34:00,
2013-01-14 15:39:00,51.0,19.1,30.31,South,180,4.0,6.0,28,0.00,,,0.00,LWC V2.00 B2112,2013-01-14 23:39:00,
2013-01-14 15:44:00,51.1,20.0,30.31,ESE,106,4.0,10.0,29,0.00,,,0.00,LWC V2.00 B2112,2013-01-14 23:44:00,
2013-01-14 15:49:00,51.4,19.4,30.32,SE,133,9.0,9.0,28,0.00,,,0.00,LWC V2.00 B2112,2013-01-14 23:49:00,
2013-01-14 15:54:00,51.8,20.6,30.32,ENE,65,3.0,5.0,29,0.00,,,0.00,LWC V2.00 B2112,2013-01-14 23:54:00,
2013-01-14 15:59:00,51.9,19.8,30.31,SSE,155,4.0,10.0,28,0.00,,,0.00,LWC V2.00 B2112,2013-01-14 23:59:00,
2013-01-14 16:04:00,51.9,19.8,30.32,SE,124,3.0,6.0,28,0.00,,,0.00,LWC V2.00 B2112,2013-01-15 00:04:00,
2013-01-14 16:09:00,52.0,19.9,30.32,ESE,113,1.0,6.0,28,0.00,,,0.00,LWC V2.00 B2112,2013-01-15 00:09:00,
2013-01-14 16:14:00,51.9,19.0,30.32,SSE,150,4.0,5.0,27,0.00,,,0.00,LWC V2.00 B2112,2013-01-15 00:14:00,
2013-01-14 16:19:00,51.5,18.6,30.32,NE,51,4.0,4.0,27,0.00,,,0.00,LWC V2.00 B2112,2013-01-15 00:19:00,
2013-01-14 16:24:00,51.3,18.5,30.32,SSE,164,0.0,6.0,27,0.00,,,0.00,LWC V2.00 B2112,2013-01-15 00:24:00,
2013-01-14 16:29:00,51.2,18.4,30.33,South,178,0.0,3.0,27,0.00,,,0.00,LWC V2.00 B2112,2013-01-15 00:29:00,
2013-01-14 16:34:00,51.3,19.3,30.33,South,175,1.0,2.0,28,0.00,,,0.00,LWC V2.00 B2112,2013-01-15 00:34:00,
2013-01-14 16:39:00,51.3,20.1,30.32,South,180,0.0,2.0,29,0.00,,,0.00,LWC V2.00 B2112,2013-01-15 00:39:00,
2013-01-14 16:44:00,51.1,19.1,30.32,South,180,0.0,3.0,28,0.00,,,0.00,LWC V2.00 B2112,2013-01-15 00:44:00,
2013-01-14 16:49:00,50.5,18.6,30.32,WNW,299,0.0,6.0,28,0.00,,,0.00,LWC V2.00 B2112,2013-01-15 00:49:00,
2013-01-14 16:54:00,50.2,19.2,30.32,North,355,5.0,7.0,29,0.00,,,0.00,LWC V2.00 B2112,2013-01-15 00:54:00,
2013-01-14 16:59:00,49.6,18.7,30.32,West,273,0.0,3.0,29,0.00,,,0.00,LWC V2.00 B2112,2013-01-15 00:59:00,
2013-01-14 17:04:00,49.2,19.1,30.32,West,274,1.0,4.0,30,0.00,,,0.00,LWC V2.00 B2112,2013-01-15 01:04:00,
2013-01-14 17:09:00,48.9,18.8,30.32,West,274,0.0,0.0,30,0.00,,,0.00,LWC V2.00 B2112,2013-01-15 01:09:00,
2013-01-14 17:14:00,48.6,18.6,30.32,West,273,0.0,4.0,30,0.00,,,0.00,LWC V2.00 B2112,2013-01-15 01:14:00,
2013-01-14 17:19:00,48.2,19.0,30.32,West,276,0.0,0.0,31,0.00,,,0.00,LWC V2.00 B2112,2013-01-15 01:19:00,
2013-01-14 17:24:00,47.8,19.4,30.32,West,276,0.0,0.0,32,0.00,,,0.00,LWC V2.00 B2112,2013-01-15 01:24:00,
2013-01-14 17:29:00,47.4,19.0,30.33,West,276,0.0,0.0,32,0.00,,,0.00,LWC V2.00 B2112,2013-01-15 01:29:00,
2013-01-14 17:34:00,46.9,18.6,30.33,West,277,0.0,3.0,32,0.00,,,0.00,LWC V2.00 B2112,2013-01-15 01:34:00,
2013-01-14 17:39:00,46.7,19.1,30.33,North,355,0.0,6.0,33,0.00,,,0.00,LWC V2.00 B2112,2013-01-15 01:39:00,
2013-01-14 17:44:00,46.5,19.7,30.33,North,355,1.0,1.0,34,0.00,,,0.00,LWC V2.00 B2112,2013-01-15 01:44:00,
2013-01-14 17:49:00,46.3,19.5,30.33,North,355,0.0,2.0,34,0.00,,,0.00,LWC V2.00 B2112,2013-01-15 01:49:00,
2013-01-14 17:54:00,46.0,19.9,30.33,NNW,340,0.0,4.0,35,0.00,,,0.00,LWC V2.00 B2112,2013-01-15 01:54:00,
2013-01-14 17:59:00,45.7,20.3,30.34,NNW,340,0.0,1.0,36,0.00,,,0.00,LWC V2.00 B2112,2013-01-15 01:59:00,
2013-01-14 18:04:00,45.4,20.0,30.34,NNW,340,0.0,0.0,36,0.00,,,0.00,LWC V2.00 B2112,2013-01-15 02:04:00,
2013-01-14 18:09:00,45.1,19.8,30.33,NNW,340,0.0,0.0,36,0.00,,,0.00,LWC V2.00 B2112,2013-01-15 02:09:00,
2013-01-14 18:14:00,44.9,20.2,30.33,NNW,340,0.0,0.0,37,0.00,,,0.00,LWC V2.00 B2112,2013-01-15 02:14:00,
2013-01-14 18:19:00,44.5,19.9,30.33,NNW,342,0.0,3.0,37,0.00,,,0.00,LWC V2.00 B2112,2013-01-15 02:19:00,
2013-01-14 18:24:00,44.2,20.2,30.33,NNW,342,0.0,3.0,38,0.00,,,0.00,LWC V2.00 B2112,2013-01-15 02:24:00,
2013-01-14 18:29:00,44.1,19.5,30.33,NNW,340,0.0,1.0,37,0.00,,,0.00,LWC V2.00 B2112,2013-01-15 02:29:00,
2013-01-14 18:34:00,44.0,20.0,30.33,NNW,342,1.0,1.0,38,0.00,,,0.00,LWC V2.00 B2112,2013-01-15 02:34:00,
2013-01-14 18:39:00,44.0,18.8,30.33,North,355,0.0,1.0,36,0.00,,,0.00,LWC V2.00 B2112,2013-01-15 02:39:00,
2013-01-14 18:44:00,44.1,18.2,30.33,North,355,1.0,3.0,35,0.00,,,0.00,LWC V2.00 B2112,2013-01-15 02:44:00,
2013-01-14 18:49:00,44.2,18.3,30.33,NE,45,2.0,6.0,35,0.00,,,0.00,LWC V2.00 B2112,2013-01-15 02:49:00,
2013-01-14 18:54:00,44.5,17.9,30.33,East,79,4.0,5.0,34,0.00,,,0.00,LWC V2.00 B2112,2013-01-15 02:54:00,
2013-01-14 18:59:00,44.8,18.2,30.33,ENE,63,0.0,1.0,34,0.00,,,0.00,LWC V2.00 B2112,2013-01-15 02:59:00,
2013-01-14 19:04:00,44.9,18.9,30.33,NE,55,0.0,3.0,35,0.00,,,0.00,LWC V2.00 B2112,2013-01-15 03:04:00,
2013-01-14 19:09:00,44.9,18.9,30.33,NW,318,1.0,6.0,35,0.00,,,0.00,LWC V2.00 B2112,2013-01-15 03:09:00,
2013-01-14 19:14:00,44.8,18.8,30.33,NW,319,1.0,2.0,35,0.00,,,0.00,LWC V2.00 B2112,2013-01-15 03:14:00,
2013-01-14 19:19:00,44.8,18.8,30.33,NW,315,2.0,2.0,35,0.00,,,0.00,LWC V2.00 B2112,2013-01-15 03:19:00,
2013-01-14 19:24:00,44.8,18.8,30.33,North,0,0.0,1.0,35,0.00,,,0.00,LWC V2.00 B2112,2013-01-15 03:24:00,
2013-01-14 19:29:00,45.0,19.0,30.34,ENE,74,0.0,4.0,35,0.00,,,0.00,LWC V2.00 B2112,2013-01-15 03:29:00,
2013-01-14 19:34:00,44.9,18.9,30.34,NE,34,0.0,2.0,35,0.00,,,0.00,LWC V2.00 B2112,2013-01-15 03:34:00,
2013-01-14 19:39:00,44.9,18.9,30.34,NNW,348,1.0,3.0,35,0.00,,,0.00,LWC V2.00 B2112,2013-01-15 03:39:00,
2013-01-14 19:44:00,44.8,19.5,30.34,NNW,348,0.0,3.0,36,0.00,,,0.00,LWC V2.00 B2112,2013-01-15 03:44:00,
2013-01-14 19:49:00,44.8,18.8,30.34,North,10,0.0,4.0,35,0.00,,,0.00,LWC V2.00 B2112,2013-01-15 03:49:00,
2013-01-14 19:54:00,44.8,19.5,30.35,NE,35,0.0,1.0,36,0.00,,,0.00,LWC V2.00 B2112,2013-01-15 03:54:00,
2013-01-14 19:59:00,44.7,18.7,30.34,NNE,33,0.0,0.0,35,0.00,,,0.00,LWC V2.00 B2112,2013-01-15 03:59:00,
2013-01-14 20:04:00,44.7,19.4,30.34,NE,34,0.0,1.0,36,0.00,,,0.00,LWC V2.00 B2112,2013-01-15 04:04:00,
2013-01-14 20:09:00,44.7,19.4,30.34,NE,37,0.0,1.0,36,0.00,,,0.00,LWC V2.00 B2112,2013-01-15 04:09:00,
2013-01-14 20:14:00,44.7,19.4,30.34,ENE,58,3.0,4.0,36,0.00,,,0.00,LWC V2.00 B2112,2013-01-15 04:14:00,
2013-01-14 20:19:00,44.8,20.1,30.33,ENE,63,0.0,2.0,37,0.00,,,0.00,LWC V2.00 B2112,2013-01-15 04:19:00,
2013-01-14 20:24:00,44.7,20.0,30.33,South,184,0.0,3.0,37,0.00,,,0.00,LWC V2.00 B2112,2013-01-15 04:24:00,
2013-01-14 20:29:00,44.6,20.0,30.34,South,181,4.0,4.0,37,0.00,,,0.00,LWC V2.00 B2112,2013-01-15 04:29:00,
2013-01-14 20:34:00,44.7,19.4,30.34,South,182,0.0,3.0,36,0.00,,,0.00,LWC V2.00 B2112,2013-01-15 04:34:00,
2013-01-14 20:39:00,44.7,18.7,30.34,South,182,1.0,1.0,35,0.00,,,0.00,LWC V2.00 B2112,2013-01-15 04:39:00,
2013-01-14 20:44:00,44.8,19.5,30.34,South,183,0.0,1.0,36,0.00,,,0.00,LWC V2.00 B2112,2013-01-15 04:44:00,
2013-01-14 20:49:00,44.7,19.4,30.33,South,183,0.0,0.0,36,0.00,,,0.00,LWC V2.00 B2112,2013-01-15 04:49:00,
2013-01-14 20:54:00,44.6,19.3,30.33,South,183,0.0,0.0,36,0.00,,,0.00,LWC V2.00 B2112,2013-01-15 04:54:00,
2013-01-14 20:59:00,44.6,19.3,30.33,South,183,0.0,0.0,36,0.00,,,0.00,LWC V2.00 B2112,2013-01-15 04:59:00,
2013-01-14 21:04:00,44.4,19.8,30.33,South,183,0.0,0.0,37,0.00,,,0.00,LWC V2.00 B2112,2013-01-15 05:04:00,
2013-01-14 21:09:00,44.3,19.7,30.33,South,182,0.0,0.0,37,0.00,,,0.00,LWC V2.00 B2112,2013-01-15 05:09:00,
2013-01-14 21:14:00,44.2,20.2,30.33,South,182,2.0,2.0,38,0.00,,,0.00,LWC V2.00 B2112,2013-01-15 05:14:00,
2013-01-14 21:19:00,44.0,20.0,30.33,South,183,0.0,1.0,38,0.00,,,0.00,LWC V2.00 B2112,2013-01-15 05:19:00,
2013-01-14 21:24:00,43.7,21.6,30.33,South,182,0.0,1.0,41,0.00,,,0.00,LWC V2.00 B2112,2013-01-15 05:24:00,
2013-01-14 21:29:00,43.2,20.5,30.33,South,181,0.0,2.0,40,0.00,,,0.00,LWC V2.00 B2112,2013-01-15 05:29:00,
2013-01-14 21:34:00,42.8,20.2,30.34,South,181,1.0,2.0,40,0.00,,,0.00,LWC V2.00 B2112,2013-01-15 05:34:00,
2013-01-14 21:39:00,42.8,19.6,30.33,South,178,0.0,0.0,39,0.00,,,0.00,LWC V2.00 B2112,2013-01-15 05:39:00,
2013-01-14 21:44:00,42.9,19.7,30.34,South,178,0.0,0.0,39,0.00,,,0.00,LWC V2.00 B2112,2013-01-15 05:44:00,
2013-01-14 21:49:00,42.9,19.7,30.34,ENE,78,0.0,6.0,39,0.00,,,0.00,LWC V2.00 B2112,2013-01-15 05:49:00,
2013-01-14 21:54:00,43.2,19.9,30.33,East,82,0.0,1.0,39,0.00,,,0.00,LWC V2.00 B2112,2013-01-15 05:54:00,
2013-01-14 21:59:00,43.4,20.1,30.34,East,82,0.0,0.0,39,0.00,,,0.00,LWC V2.00 B2112,2013-01-15 05:59:00,
2013-01-14 22:04:00,43.4,21.3,30.34,East,86,0.0,3.0,41,0.00,,,0.00,LWC V2.00 B2112,2013-01-15 06:04:00,
2013-01-14 22:09:00,43.3,21.2,30.34,East,89,0.0,2.0,41,0.00,,,0.00,LWC V2.00 B2112,2013-01-15 06:09:00,
2013-01-14 22:14:00,43.2,21.1,30.34,East,89,0.0,0.0,41,0.00,,,0.00,LWC V2.00 B2112,2013-01-15 06:14:00,
2013-01-14 22:19:00,43.0,21.5,30.34,East,88,0.0,0.0,42,0.00,,,0.00,LWC V2.00 B2112,2013-01-15 06:19:00,
2013-01-14 22:24:00,42.8,21.3,30.35,East,89,0.0,1.0,42,0.00,,,0.00,LWC V2.00 B2112,2013-01-15 06:24:00,
2013-01-14 22:29:00,42.5,21.6,30.35,East,88,0.0,0.0,43,0.00,,,0.00,LWC V2.00 B2112,2013-01-15 06:29:00,
2013-01-14 22:34:00,42.2,21.9,30.35,East,88,0.0,2.0,44,0.00,,,0.00,LWC V2.00 B2112,2013-01-15 06:34:00,
2013-01-14 22:39:00,41.9,22.1,30.35,East,97,0.0,1.0,45,0.00,,,0.00,LWC V2.00 B2112,2013-01-15 06:39:00,
2013-01-14 22:44:00,41.5,22.3,30.35,East,96,0.0,0.0,46,0.00,,,0.00,LWC V2.00 B2112,2013-01-15 06:44:00,
2013-01-14 22:49:00,41.2,21.5,30.35,East,96,0.0,0.0,45,0.00,,,0.00,LWC V2.00 B2112,2013-01-15 06:49:00,
2013-01-14 22:54:00,41.1,21.4,30.35,East,96,0.0,0.0,45,0.00,,,0.00,LWC V2.00 B2112,2013-01-15 06:54:00,
2013-01-14 22:59:00,41.1,20.9,30.35,East,96,2.0,3.0,44,0.00,,,0.00,LWC V2.00 B2112,2013-01-15 06:59:00,
2013-01-14 23:04:00,41.4,21.1,30.35,East,96,0.0,0.0,44,0.00,,,0.00,LWC V2.00 B2112,2013-01-15 07:04:00,
2013-01-14 23:09:00,41.5,20.7,30.36,East,96,0.0,0.0,43,0.00,,,0.00,LWC V2.00 B2112,2013-01-15 07:09:00,
2013-01-14 23:14:00,41.6,21.3,30.36,East,96,0.0,0.0,44,0.00,,,0.00,LWC V2.00 B2112,2013-01-15 07:14:00,
2013-01-14 23:19:00,41.5,21.8,30.36,East,96,0.0,3.0,45,0.00,,,0.00,LWC V2.00 B2112,2013-01-15 07:19:00,
2013-01-14 23:24:00,41.4,21.7,30.36,East,96,0.0,2.0,45,0.00,,,0.00,LWC V2.00 B2112,2013-01-15 07:24:00,
2013-01-14 23:29:00,41.2,22.0,30.36,East,96,2.0,2.0,46,0.00,,,0.00,LWC V2.00 B2112,2013-01-15 07:29:00,
2013-01-14 23:34:00,41.0,22.3,30.36,ESE,103,0.0,4.0,47,0.00,,,0.00,LWC V2.00 B2112,2013-01-15 07:34:00,
2013-01-14 23:39:00,40.6,22.5,30.36,SSE,150,0.0,5.0,48,0.00,,,0.00,LWC V2.00 B2112,2013-01-15 07:39:00,
2013-01-14 23:44:00,40.3,22.7,30.36,SSE,149,0.0,3.0,49,0.00,,,0.00,LWC V2.00 B2112,2013-01-15 07:44:00,
2013-01-14 23:49:00,39.9,22.8,30.37,SSE,157,0.0,2.0,50,0.00,,,0.00,LWC V2.00 B2112,2013-01-15 07:49:00,
2013-01-14 23:54:00,39.6,23.0,30.37,SSE,157,1.0,1.0,51,0.00,,,0.00,LWC V2.00 B2112,2013-01-15 07:54:00,
2013-01-14 23:59:00,39.4,23.7,30.37,SE,142,0.0,2.0,53,0.00,,,0.00,LWC V2.00 B2112,2013-01-15 07:59:00,